EW9698 Weather Reports


time (UTC)temp
F
wind
direction
speed
knots
gust
knots
rain 1hr
in
rain 24hr
in
rain mn
in
humidity
%
barometer
mb
20260906211044 88 140 3.5 9.6 0.00 0.00 0.00 42 1013.9
20260906210543 88 136 1.7 10.4 0.00 0.00 0.00 43 1014.0
20260906210055 88 151 6.1 13.0 0.00 0.00 0.00 42 1014.0
20260906205542 87 188 7.0 13.0 0.00 0.00 0.00 43 1014.0
20260906205040 87 134 0.9 10.4 0.00 0.00 0.00 42 1014.1
20260906204542 87 117 7.0 8.7 0.00 0.00 0.00 43 1014.2
20260906204041 88 153 5.2 11.3 0.00 0.00 0.00 43 1014.2
20260906203540 88 177 6.1 11.3 0.00 0.00 0.00 43 1014.2
20260906203039 88 121 4.3 12.2 0.00 0.00 0.00 45 1014.4
20260906202538 87 150 5.2 14.8 0.00 0.00 0.00 44 1014.4
20260906202040 87 159 9.6 14.8 0.00 0.00 0.00 45 1014.3
20260906201538 87 121 5.2 13.0 0.00 0.00 0.00 43 1014.3
20260906201037 87 130 6.1 13.0 0.00 0.00 0.00 44 1014.4
20260906200535 87 115 7.8 12.2 0.00 0.00 0.00 44 1014.4
20260906200042 87 158 5.2 12.2 0.00 0.00 0.00 43 1014.5
20260906195534 87 122 8.7 12.2 0.00 0.00 0.00 41 1014.5
20260906195034 87 115 7.0 10.4 0.00 0.00 0.00 42 1014.6
20260906194538 87 158 2.6 7.8 0.00 0.00 0.00 42 1014.6
20260906194032 86 240 3.5 8.7 0.00 0.00 0.00 44 1014.7
20260906193531 86 199 6.1 8.7 0.00 0.00 0.00 44 1014.7
20260906193030 85 134 2.6 10.4 0.00 0.00 0.00 45 1014.8
20260906192529 85 219 7.0 9.6 0.00 0.00 0.00 44 1014.8
20260906192029 86 248 5.2 9.6 0.00 0.00 0.00 44 1014.8
20260906191539 86 244 1.7 13.0 0.00 0.00 0.00 44 1014.9
20260906191028 86 199 7.8 13.0 0.00 0.00 0.00 44 1015.0
20260906190528 85 198 3.5 11.3 0.00 0.00 0.00 46 1014.9
20260906190038 85 180 3.5 7.8 0.00 0.00 0.00 47 1015.0
20260906185524 85 252 3.5 13.0 0.00 0.00 0.00 45 1014.9
20260906185025 85 261 5.2 13.0 0.00 0.00 0.00 47 1015.1
20260906184522 84 247 6.1 8.7 0.00 0.00 0.00 46 1015.1
20260906184020 84 165 1.7 10.4 0.00 0.00 0.00 47 1015.3
20260906183524 83 171 5.2 10.4 0.00 0.00 0.00 48 1015.4
20260906183020 83 241 3.5 9.6 0.00 0.00 0.00 47 1015.3
20260906182522 84 208 2.6 8.7 0.00 0.00 0.00 47 1015.4
20260906182017 84 169 3.5 8.7 0.00 0.00 0.00 47 1015.4
20260906181530 83 208 6.1 9.6 0.00 0.00 0.00 48 1015.5
20260906181016 83 212 3.5 9.6 0.00 0.00 0.00 48 1015.5
20260906180514 83 157 6.1 10.4 0.00 0.00 0.00 49 1015.6
20260906180013 83 202 5.2 13.0 0.00 0.00 0.00 49 1015.6
20260906175512 82 184 6.1 13.0 0.00 0.00 0.00 50 1015.8
20260906175013 82 186 6.1 8.7 0.00 0.00 0.00 50 1015.8
20260906174510 82 216 4.3 9.6 0.00 0.00 0.00 50 1016.0
20260906174009 81 255 4.3 10.4 0.00 0.00 0.00 51 1016.0
20260906173508 81 175 6.1 11.3 0.00 0.00 0.00 53 1016.0
20260906173008 81 221 3.5 13.9 0.00 0.00 0.00 52 1016.0
20260906172506 80 224 7.8 13.0 0.00 0.00 0.00 53 1016.1
20260906172005 80 221 4.3 13.0 0.00 0.00 0.00 54 1016.1
20260906171505 80 237 5.2 11.3 0.00 0.00 0.00 54 1016.2
20260906171008 80 171 5.2 13.0 0.00 0.00 0.00 54 1016.3
20260906170502 79 178 4.3 13.0 0.00 0.00 0.00 55 1016.3
20260906170002 79 213 5.2 12.2 0.00 0.00 0.00 55 1016.3
20260906165503 79 246 7.0 11.3 0.00 0.00 0.00 56 1016.3
20260906165100 79 175 7.0 13.0 0.00 0.00 0.00 56 1016.5
20260906164700 78 171 8.7 13.0 0.00 0.00 0.00 57 1016.5
20260906164100 78 223 7.0 13.0 0.00 0.00 0.00 57 1016.5
20260906163558 78 195 5.2 13.0 0.00 0.00 0.00 57 1016.5
20260906163057 77 204 6.1 16.5 0.00 0.00 0.00 57 1016.6
20260906162556 77 222 7.0 16.5 0.00 0.00 0.00 58 1016.5
20260906162056 77 205 8.7 14.8 0.00 0.00 0.00 57 1016.6
20260906161555 76 158 8.7 14.8 0.00 0.00 0.00 58 1016.6
20260906161053 76 203 9.6 13.9 0.00 0.00 0.00 57 1016.7
20260906160551 75 186 7.8 13.0 0.00 0.00 0.00 58 1016.6
20260906160051 75 209 5.2 13.9 0.00 0.00 0.00 57 1016.7
20260906155549 75 213 3.5 11.3 0.00 0.00 0.00 58 1016.6
20260906155051 75 200 7.0 14.8 0.00 0.00 0.00 58 1016.7
20260906154554 74 192 6.1 10.4 0.00 0.00 0.00 60 1016.7
20260906154048 73 160 2.6 10.4 0.00 0.00 0.00 62 1016.8
20260906153544 73 163 2.6 10.4 0.00 0.00 0.00 62 1016.7
20260906153043 72 194 7.0 12.2 0.00 0.00 0.00 62 1016.8
20260906152541 72 202 6.1 12.2 0.00 0.00 0.00 62 1016.8
20260906152040 71 213 7.8 11.3 0.00 0.00 0.00 64 1016.7
20260906151539 71 223 5.2 11.3 0.00 0.00 0.00 65 1016.8
20260906151037 70 213 5.2 13.9 0.00 0.00 0.00 66 1016.7
20260906150537 70 204 5.2 13.9 0.00 0.00 0.00 67 1016.8
20260906150034 69 184 4.3 13.9 0.00 0.00 0.00 68 1016.8
20260906145532 68 136 5.2 13.0 0.00 0.00 0.00 69 1016.8
20260906145034 68 215 6.1 13.0 0.00 0.00 0.00 70 1016.9
20260906144530 67 224 5.2 12.2 0.00 0.00 0.00 72 1016.9
20260906144032 67 169 7.0 12.2 0.00 0.00 0.00 74 1016.9
20260906143527 66 199 5.2 13.0 0.00 0.00 0.00 74 1017.0
20260906143033 66 246 7.0 12.2 0.00 0.00 0.00 75 1016.9
20260906142529 65 192 6.1 12.2 0.00 0.00 0.00 76 1017.0
20260906142024 64 168 5.2 12.2 0.00 0.00 0.00 78 1017.0
20260906141521 64 171 7.0 13.0 0.00 0.00 0.00 79 1017.1
20260906141021 63 195 6.1 12.2 0.00 0.00 0.00 82 1017.1
20260906140526 62 223 6.1 9.6 0.00 0.00 0.00 84 1016.9
20260906140035 62 206 6.1 8.7 0.00 0.00 0.00 85 1017.0
20260906135520 61 211 3.5 7.8 0.00 0.00 0.00 86 1016.9
20260906135019 60 202 4.3 7.8 0.00 0.00 0.00 87 1017.0
20260906134519 60 164 3.5 7.8 0.00 0.00 0.00 88 1017.1
20260906134020 59 171 2.6 7.0 0.00 0.00 0.00 88 1017.1
20260906133519 59 169 4.3 8.7 0.00 0.00 0.00 88 1017.0
20260906133019 59 211 4.3 8.7 0.00 0.00 0.00 88 1017.0
20260906132520 59 197 2.6 7.0 0.00 0.00 0.00 89 1017.0
20260906132019 58 215 2.6 7.0 0.00 0.00 0.00 89 1017.1
20260906131518 58 223 3.5 6.1 0.00 0.00 0.00 89 1017.0
20260906131018 58 180 4.3 7.0 0.00 0.00 0.00 89 1017.1
20260906130518 58 164 2.6 7.8 0.00 0.00 0.00 90 1017.1
20260906130031 57 190 4.3 9.6 0.00 0.00 0.00 89 1016.9
20260906125517 57 192 6.1 9.6 0.00 0.00 0.00 89 1016.9
20260906125015 57 209 6.1 9.6 0.00 0.00 0.00 90 1016.9
20260906124517 57 219 5.2 8.7 0.00 0.00 0.00 90 1016.8
20260906124016 57 192 4.3 7.8 0.00 0.00 0.00 89 1016.8
20260906123512 57 180 2.6 7.0 0.00 0.00 0.00 88 1016.8
20260906123015 57 178 3.5 7.8 0.00 0.00 0.00 89 1016.9
20260906122512 57 210 2.6 7.8 0.00 0.00 0.00 89 1016.7
20260906122012 57 173 3.5 6.1 0.00 0.00 0.00 88 1016.7
20260906121512 57 214 2.6 8.7 0.00 0.00 0.00 89 1016.7
20260906121011 57 181 4.3 8.7 0.00 0.00 0.00 88 1016.7
20260906120510 57 193 3.5 6.1 0.00 0.00 0.00 88 1016.7
20260906120010 57 171 2.6 5.2 0.00 0.00 0.00 88 1016.9
20260906115511 57 241 2.6 7.0 0.00 0.00 0.00 87 1016.7
20260906115009 57 206 4.3 7.8 0.00 0.00 0.00 88 1016.8
20260906114509 57 175 3.5 7.8 0.00 0.00 0.00 87 1016.7
20260906114013 57 208 3.5 7.0 0.00 0.00 0.00 87 1016.6
20260906113509 57 212 3.5 7.8 0.00 0.00 0.00 87 1016.7
20260906113009 58 176 4.3 8.7 0.00 0.00 0.00 87 1016.6
20260906112509 58 204 4.3 8.7 0.00 0.00 0.00 87 1016.7
20260906112011 58 209 4.3 7.8 0.00 0.00 0.00 87 1016.8
20260906111518 58 175 3.5 8.7 0.00 0.00 0.00 87 1016.8
20260906111008 58 144 3.5 8.7 0.00 0.00 0.00 88 1016.7
20260906110510 57 174 4.3 8.7 0.00 0.00 0.00 88 1016.6
20260906110012 57 169 5.2 8.7 0.00 0.00 0.00 88 1016.6
20260906105509 57 220 4.3 9.6 0.00 0.00 0.00 89 1016.7
20260906105006 57 138 5.2 9.6 0.00 0.00 0.00 90 1016.7
20260906104511 56 180 5.2 8.7 0.00 0.00 0.00 90 1016.8
20260906104004 57 178 2.6 7.0 0.00 0.00 0.00 89 1016.8
20260906103502 57 137 3.5 7.0 0.00 0.00 0.00 89 1016.8
20260906103002 57 124 2.6 3.5 0.00 0.00 0.00 89 1016.8
20260906102502 57 190 0.9 6.1 0.00 0.00 0.00 88 1016.7
20260906102101 58 126 1.7 6.1 0.00 0.00 0.00 88 1016.7
20260906101559 58 132 2.6 5.2 0.00 0.00 0.00 89 1016.6
20260906101057 58 198 0.9 7.0 0.00 0.00 0.00 87 1016.5
20260906100556 59 155 3.5 5.2 0.00 0.00 0.00 86 1016.5
20260906100055 59 169 2.6 7.0 0.00 0.00 0.00 85 1016.5
20260906095554 60 173 1.7 7.8 0.00 0.00 0.00 85 1016.5
20260906095055 60 170 3.5 7.8 0.00 0.00 0.00 87 1016.4
20260906094554 60 184 2.6 7.0 0.00 0.00 0.00 86 1016.3
20260906094052 60 238 3.5 7.0 0.00 0.00 0.00 86 1016.2
20260906093552 60 236 3.5 8.7 0.00 0.00 0.00 86 1016.2
20260906093105 60 212 5.2 8.7 0.00 0.00 0.00 86 1016.1
20260906092550 60 207 4.3 8.7 0.00 0.00 0.00 85 1015.9
20260906092049 60 212 5.2 8.7 0.00 0.00 0.00 85 1016.0
20260906091548 60 215 4.3 8.7 0.00 0.00 0.00 85 1016.0
20260906091048 60 238 4.3 7.8 0.00 0.00 0.00 85 1016.0
20260906090546 61 228 4.3 8.7 0.00 0.00 0.00 85 1016.0
20260906090045 61 241 3.5 7.0 0.00 0.00 0.00 84 1016.1
20260906085544 61 186 4.3 7.8 0.00 0.00 0.00 84 1016.2
20260906085044 61 222 3.5 7.8 0.00 0.00 0.00 84 1016.1
20260906084544 61 213 3.5 7.8 0.00 0.00 0.00 84 1016.1
20260906084044 61 229 3.5 7.8 0.00 0.00 0.00 84 1016.2
20260906083546 61 232 3.5 9.6 0.00 0.00 0.00 83 1016.1
20260906083048 61 203 4.3 9.6 0.00 0.00 0.00 83 1016.0
20260906082541 61 215 4.3 7.8 0.00 0.00 0.00 83 1016.2
20260906082041 61 234 4.3 9.6 0.00 0.00 0.00 83 1016.1
20260906081543 61 205 5.2 12.2 0.00 0.00 0.00 82 1016.2
20260906081043 62 218 5.2 12.2 0.00 0.00 0.00 82 1016.2
20260906080538 62 234 4.3 10.4 0.00 0.00 0.00 82 1016.3
20260906080038 62 241 4.3 8.7 0.00 0.00 0.00 82 1016.3
20260906075538 62 219 5.2 8.7 0.00 0.00 0.00 82 1016.3
20260906075038 62 219 4.3 8.7 0.00 0.00 0.00 82 1016.5
20260906074538 62 206 5.2 8.7 0.00 0.00 0.00 82 1016.3
20260906074036 62 230 4.3 7.8 0.00 0.00 0.00 82 1016.3
20260906073536 62 226 4.3 7.8 0.00 0.00 0.00 82 1016.4
20260906073037 62 230 3.5 8.7 0.00 0.00 0.00 82 1016.4
20260906072536 62 250 4.3 9.6 0.00 0.00 0.00 82 1016.4
20260906072035 62 240 5.2 9.6 0.00 0.00 0.00 81 1016.3
20260906071541 62 236 4.3 9.6 0.00 0.00 0.00 82 1016.3
20260906071034 62 228 3.5 8.7 0.00 0.00 0.00 81 1016.3
20260906070533 62 204 4.3 9.6 0.00 0.00 0.00 81 1016.5
20260906070034 62 215 4.3 11.3 0.00 0.00 0.00 81 1016.4
20260906065536 62 219 5.2 12.2 0.00 0.00 0.00 81 1016.4
20260906065033 62 194 7.0 12.2 0.00 0.00 0.00 81 1016.4
20260906064535 62 191 5.2 12.2 0.00 0.00 0.00 82 1016.4
20260906064032 62 159 5.2 12.2 0.00 0.00 0.00 82 1016.4
20260906063530 62 199 6.1 10.4 0.00 0.00 0.00 82 1016.5
20260906063030 62 170 5.2 9.6 0.00 0.00 0.00 82 1016.4
20260906062529 62 182 5.2 9.6 0.00 0.00 0.00 82 1016.4
20260906062028 62 196 4.3 11.3 0.00 0.00 0.00 82 1016.5
20260906061527 63 163 3.5 8.7 0.00 0.00 0.00 81 1016.5
20260906061025 63 180 5.2 8.7 0.00 0.00 0.00 80 1016.4
20260906060524 63 171 4.3 8.7 0.00 0.00 0.00 80 1016.4
20260906060023 63 181 3.5 8.7 0.00 0.00 0.00 80 1016.4
20260906055522 63 183 3.5 8.7 0.00 0.00 0.00 80 1016.3
20260906055026 63 173 4.3 7.8 0.00 0.00 0.00 80 1016.3
20260906054522 63 215 2.6 7.8 0.00 0.00 0.00 80 1016.1
20260906054021 63 178 3.5 7.8 0.00 0.00 0.00 80 1016.2
20260906053520 63 138 2.6 7.8 0.00 0.00 0.00 80 1016.1
20260906053027 63 228 4.3 7.8 0.00 0.00 0.00 80 1016.1
20260906052521 63 225 3.5 7.8 0.00 0.00 0.00 79 1016.3
20260906052021 63 227 5.2 7.0 0.00 0.00 0.00 79 1016.4
20260906051527 64 234 4.3 7.0 0.00 0.00 0.00 78 1016.3
20260906051020 64 198 2.6 9.6 0.00 0.00 0.00 78 1016.2
20260906050522 64 156 7.0 9.6 0.00 0.00 0.00 76 1016.3
20260906050045 65 133 3.5 7.0 0.00 0.00 0.00 76 1016.1
20260906045519 65 152 5.2 8.7 0.00 0.00 0.00 76 1016.2
20260906045021 65 188 5.2 8.7 0.00 0.00 0.00 75 1016.1
20260906044518 66 163 4.3 8.7 0.00 0.00 0.00 75 1016.2
20260906044017 66 167 5.2 9.6 0.00 0.00 0.00 75 1016.2
20260906043519 66 142 4.3 10.4 0.00 0.00 0.00 74 1016.3
20260906043018 66 141 7.0 10.4 0.00 0.00 0.00 74 1016.3
20260906042518 66 148 5.2 8.7 0.00 0.00 0.00 74 1016.3
20260906042017 67 144 4.3 13.0 0.00 0.00 0.00 73 1016.3
20260906041518 67 167 7.0 13.0 0.00 0.00 0.00 73 1016.2
20260906041018 67 148 8.7 12.2 0.00 0.00 0.00 73 1016.4
20260906040516 67 134 7.8 12.2 0.00 0.00 0.00 72 1016.4
20260906040017 67 131 6.1 13.0 0.00 0.00 0.00 72 1016.4
20260906035515 68 145 8.7 13.0 0.00 0.00 0.00 73 1016.4
20260906035016 68 145 7.0 13.9 0.00 0.00 0.00 74 1016.5
20260906034516 68 151 8.7 13.9 0.00 0.00 0.00 74 1016.4
20260906034015 68 170 5.2 13.0 0.00 0.00 0.00 75 1016.5
20260906033515 68 151 6.1 13.0 0.00 0.00 0.00 76 1016.4
20260906033021 68 174 7.0 13.0 0.00 0.00 0.00 77 1016.4
20260906032514 69 146 6.1 13.0 0.00 0.00 0.00 77 1016.3
20260906032014 69 172 7.0 13.0 0.00 0.00 0.00 77 1016.2
20260906031519 69 171 7.0 14.8 0.00 0.00 0.00 77 1016.3
20260906031014 69 146 9.6 14.8 0.00 0.00 0.00 75 1016.4
20260906030517 69 136 9.6 13.9 0.00 0.00 0.00 72 1016.5
20260906030011 69 130 7.0 13.0 0.00 0.00 0.00 71 1016.5
20260906025511 69 124 7.0 11.3 0.00 0.00 0.00 69 1016.5
20260906025013 69 159 6.1 10.4 0.00 0.00 0.00 69 1016.4
20260906024510 69 191 5.2 7.8 0.00 0.00 0.00 68 1016.3
20260906024010 70 165 4.3 8.7 0.00 0.00 0.00 68 1016.2
20260906023510 70 161 5.2 7.8 0.00 0.00 0.00 67 1016.1
20260906023010 70 194 3.5 6.1 0.00 0.00 0.00 67 1016.2
20260906022509 70 188 3.5 6.1 0.00 0.00 0.00 66 1016.1
20260906022009 71 148 3.5 6.1 0.00 0.00 0.00 65 1016.1
20260906021509 71 161 2.6 4.3 0.00 0.00 0.00 65 1016.0
20260906021009 71 134 1.7 6.1 0.00 0.00 0.00 65 1015.9
20260906020511 71 198 2.6 6.1 0.00 0.00 0.00 65 1015.8
20260906020009 71 174 2.6 5.2 0.00 0.00 0.00 64 1015.7
20260906015507 72 142 2.6 6.1 0.00 0.00 0.00 64 1015.7
20260906015007 72 140 3.5 6.1 0.00 0.00 0.00 63 1015.6
20260906014510 72 204 3.5 8.7 0.00 0.00 0.00 63 1015.6
20260906014011 73 161 2.6 8.7 0.00 0.00 0.00 62 1015.5
20260906013507 73 145 4.3 7.8 0.00 0.00 0.00 62 1015.5
20260906013010 74 157 1.7 5.2 0.00 0.00 0.00 61 1015.3
20260906012506 74 180 1.7 7.8 0.00 0.00 0.00 60 1015.3
20260906012010 75 139 3.5 12.2 0.00 0.00 0.00 59 1015.3
20260906011507 75 114 7.8 14.8 0.00 0.00 0.00 59 1015.3
20260906011006 75 121 9.6 14.8 0.00 0.00 0.00 58 1015.4
20260906010511 76 148 10.4 18.2 0.00 0.00 0.00 59 1015.5
20260906010007 76 116 12.2 18.2 0.00 0.00 0.00 59 1015.5
20260906005506 77 134 8.7 18.2 0.00 0.00 0.00 61 1015.4
20260906005005 78 127 10.4 18.2 0.00 0.00 0.00 60 1015.5
20260906004506 79 129 11.3 15.6 0.00 0.00 0.00 58 1015.5
20260906004005 79 117 7.8 15.6 0.00 0.00 0.00 54 1015.4
20260906003507 80 107 10.4 15.6 0.00 0.00 0.00 51 1015.4
20260906003005 81 115 9.6 13.9 0.00 0.00 0.00 47 1015.3
20260906002504 82 114 10.4 13.9 0.00 0.00 0.00 46 1015.3
20260906002004 83 115 8.7 12.2 0.00 0.00 0.00 46 1015.2
20260906001503 83 84 8.7 15.6 0.00 0.00 0.00 45 1015.2
20260906001004 84 92 12.2 15.6 0.00 0.00 0.00 45 1015.0
20260906000502 84 96 10.4 16.5 0.00 0.00 0.00 44 1015.0
20260906000003 84 103 12.2 16.5 0.00 0.00 0.00 44 1015.2
20260905235501 84 95 11.3 15.6 0.00 0.00 0.00 43 1015.1
20260905235002 84 73 4.3 16.5 0.00 0.00 0.00 40 1015.1
20260905234501 85 73 7.8 16.5 0.00 0.00 0.00 38 1015.2
20260905234002 85 60 9.6 14.8 0.00 0.00 0.00 40 1015.2
20260905233501 85 63 7.0 17.4 0.00 0.00 0.00 40 1015.2
20260905233001 85 62 9.6 17.4 0.00 0.00 0.00 39 1015.2
20260905232600 85 71 7.0 13.9 0.00 0.00 0.00 39 1015.2
20260905232500 85 71 7.0 13.9 0.00 0.00 0.00 39 1015.2
20260905232100 85 52 7.0 13.9 0.00 0.00 0.00 39 1015.2
20260905231600 84 58 7.0 19.1 0.00 0.00 0.00 40 1015.1
20260905231102 84 61 9.6 19.1 0.00 0.00 0.00 39 1015.1
20260905230559 85 68 7.8 20.9 0.00 0.00 0.00 39 1015.1
20260905230058 86 65 13.0 17.4 0.00 0.00 0.00 36 1015.1
20260905225601 87 44 7.0 14.8 0.00 0.00 0.00 30 1015.1
20260905225102 87 32 9.6 14.8 0.00 0.00 0.00 29 1015.0
20260905224604 87 49 7.0 13.9 0.00 0.00 0.00 29 1015.1
20260905224058 87 43 6.1 14.8 0.00 0.00 0.00 28 1015.1
20260905223557 87 68 7.8 14.8 0.00 0.00 0.00 28 1015.3
20260905223057 87 20 6.1 13.0 0.00 0.00 0.00 29 1015.4
20260905222559 88 42 7.8 13.0 0.00 0.00 0.00 28 1015.4
20260905222056 88 17 7.8 12.2 0.00 0.00 0.00 28 1015.4
20260905221557 88 34 7.8 13.0 0.00 0.00 0.00 28 1015.4
20260905221056 88 53 8.7 13.0 0.00 0.00 0.00 27 1015.4
20260905220555 89 74 7.0 12.2 0.00 0.00 0.00 27 1015.4
20260905220055 90 64 8.7 12.2 0.00 0.00 0.00 26 1015.3
20260905215555 90 68 3.5 10.4 0.00 0.00 0.00 26 1015.2
20260905215054 91 58 6.1 10.4 0.00 0.00 0.00 25 1015.1
20260905214605 91 51 6.1 10.4 0.00 0.00 0.00 26 1015.0
20260905214054 91 53 6.1 11.3 0.00 0.00 0.00 26 1015.0
20260905213555 91 44 7.0 11.3 0.00 0.00 0.00 25 1015.1
20260905213054 91 42 5.2 11.3 0.00 0.00 0.00 26 1015.0
20260905212554 91 53 7.8 10.4 0.00 0.00 0.00 25 1015.1
20260905212053 91 41 5.2 9.6 0.00 0.00 0.00 26 1015.1
20260905211551 91 35 4.3 9.6 0.00 0.00 0.00 26 1015.1